#timestamp,LO_Frequency,Hit,StdDev 
1665644415.1,286046963.4,N
1665644435.9,286046964.1,N
1665644455.7,286046970.2,N
1665644475.5,286046969.4,N
1665644495.4,286046970.4,N
1665644515.2,286046969.2,N
1665644535.1,286046968.3,N
1665644536.0,286046968.3,N
1665644555.8,286046974.0,N
1665644575.6,286046973.9,N
1665644595.5,286046969.7,N
1665644615.3,286046966.8,Y
1665644635.1,286046993.8,P
1665644655.9,286046998.7,N
1665644675.7,286046997.8,N
1665644695.6,286046993.8,N
1665644715.4,286047000.4,N
1665644735.2,286046998.3,N
1665644755.1,286046992.3,N
1665644756.0,286046992.3,N
1665644775.8,286046991.6,N
1665644795.6,286046989.1,N
1665644815.5,286046989.2,N
1665644835.3,286046986.2,N
1665644855.2,286046981.5,Y
1665644875.9,286046987.8,P
1665644895.7,286046991.2,P
1665644915.6,286046991.0,P
1665644935.4,286046993.2,Y
1665644955.2,286047001.4,P
1665644975.1,286047004.8,N
1665644976.0,286047004.8,N
1665644995.8,286047012.3,N
1665645015.7,286047015.9,N
1665645035.5,286047018.3,N
1665645055.3,286047009.2,N
1665645075.2,286047001.7,N
1665645095.0,286046999.9,N
1665645095.9,286046999.9,N
1665645115.8,286046995.4,N
1665645135.6,286046990.1,N
1665645155.4,286046991.0,N
1665645175.3,286046994.4,N
1665645195.1,286046995.6,N
1665645215.8,286046999.4,N
1665645235.7,286047002.1,N
1665645255.5,286047008.5,N
1665645275.3,286047009.8,N
1665645295.2,286047013.5,N
1665645315.0,286047019.2,N
1665645315.9,286047019.2,N
1665645335.8,286047026.1,N
1665645355.6,286047029.4,N
1665645375.4,286047034.0,Y
1665645395.3,286047039.0,P
1665645415.1,286047033.6,N
1665645435.9,286047034.5,N
1665645455.7,286047036.4,N
1665645475.5,286047030.5,N
1665645495.4,286047028.8,N
1665645515.2,286047024.2,N
1665645535.0,286047025.1,N
1665645535.9,286047025.1,N
1665645555.8,286047026.5,N
1665645575.6,286047037.5,Y
1665645595.5,286046994.7,P
1665645615.3,286046993.4,N
1665645635.1,286046990.1,N
1665645655.9,286046988.8,N
1665645675.7,286046991.5,N
1665645695.5,286046991.1,N
1665645715.4,286046987.3,N
1665645735.2,286046986.8,N
1665645755.1,286046982.3,N
1665645756.0,286046982.3,N
1665645775.8,286046979.1,N
1665645795.6,286046982.8,N
1665645815.5,286046978.4,N
1665645835.3,286046969.8,N
1665645855.1,286046964.4,N
1665645875.9,286046957.5,Y
1665645895.7,286046969.3,P
1665645915.6,286046970.5,P
1665645935.4,286046980.3,N
1665645955.2,286046987.7,N
1665645975.1,286046991.7,N
1665645976.0,286046991.7,N
1665645995.8,286046990.2,N
1665646015.6,286046990.2,N
1665646035.5,286046988.3,N
1665646055.3,286046982.2,N
1665646075.2,286046979.0,N
1665646095.9,286046981.6,N
1665646115.8,286046977.7,Y
1665646135.7,286046992.1,P
1665646155.5,286046994.7,N
1665646175.3,286046995.1,N
1665646195.2,286046995.9,N
1665646215.0,286046997.8,N
1665646215.9,286046997.8,N
1665646235.7,286046990.5,N
1665646255.6,286046989.9,N
1665646275.4,286046986.0,Y
1665646295.3,286046992.0,P
1665646315.1,286046996.3,P
1665646316.0,286046996.3,N
1665646335.8,286046998.4,N
1665646355.7,286047004.5,N
1665646375.5,286047008.4,N
1665646395.3,286047010.7,N
1665646415.2,286047005.1,N
1665646435.0,286047007.2,N
1665646435.9,286047007.2,N
1665646455.8,286047006.7,N
1665646475.6,286047004.9,N
1665646495.4,286047003.6,N
1665646515.3,286046998.5,N
1665646535.1,286046994.3,N
1665646555.8,286046985.6,N
1665646575.7,286046982.8,N
1665646595.5,286046983.4,N
1665646615.4,286046978.9,N
1665646635.2,286046977.3,N
1665646655.0,286046979.1,N
1665646655.9,286046979.1,N
1665646675.8,286046976.6,N
1665646695.6,286046973.4,N
1665646715.4,286046967.7,N
1665646735.3,286046969.3,N
1665646755.1,286046971.6,N
1665646775.9,286046967.7,N
1665646795.7,286046969.1,N
1665646815.5,286046968.2,N
1665646835.4,286046973.8,N
1665646855.2,286046974.5,N
1665646875.0,286046975.2,N
1665646875.9,286046975.2,N
1665646895.8,286046976.4,N
1665646915.6,286046985.9,N
1665646935.4,286046990.1,N
1665646955.3,286046996.6,N
1665646975.1,286047000.6,N
1665646995.9,286046998.6,N
1665647015.7,286047000.1,N
1665647035.5,286046999.7,N
1665647055.4,286047003.1,N
1665647075.2,286047001.5,N
1665647095.1,286047001.5,N
1665647096.0,286047001.5,N
1665647115.8,286047007.1,N
1665647135.6,286047006.2,N
1665647155.5,286047012.1,N
1665647175.3,286047010.2,N
1665647195.2,286047005.6,N
1665647215.9,286047004.4,N
1665647235.7,286047002.4,N
1665647255.6,286047003.9,N
1665647275.4,286047002.1,N
1665647295.2,286047001.7,N
1665647315.1,286047001.7,N
1665647316.0,286047001.7,N
1665647365.8,286046998.6,E
1665647375.8,286046996.7,N
1665647395.6,286046997.6,P
1665647415.4,286046995.2,P
1665647435.3,286046999.4,N
1665647455.1,286047002.6,N
1665647475.9,286046997.1,N
1665647495.7,286046999.5,N
1665647515.5,286046998.2,N
1665647535.4,286046999.9,N
1665647555.2,286046998.2,N
1665647575.1,286046996.3,N
1665647576.0,286046996.3,N
1665647595.8,286046989.5,Y
1665647615.6,286046987.5,P
1665647635.5,286046990.0,N
1665647655.3,286046980.7,P
1665647675.2,286046982.1,N
1665647695.9,286046988.1,N
1665647715.7,286046984.2,N
1665647735.6,286046986.8,N
1665647755.4,286046987.6,N
1665647775.2,286046983.4,Y
1665647795.1,286046992.6,P
1665647796.0,286046992.6,N
1665647815.8,286046988.2,P
1665647835.7,286046984.4,Y
1665647855.5,286046992.9,P
1665647875.3,286046990.7,P
1665647895.2,286046989.6,P
1665647915.0,286046991.4,Y
1665647915.9,286046991.4,P
1665647935.8,286047001.7,P
1665647955.6,286047014.3,N
1665647975.4,286047008.2,N
1665647995.3,286047017.2,N
